EW4713 Weather Reports


Display with metric or nautical units.
time (UTC)temp
F
wind
direction
speed
MPH
gust
MPH
rain 1hr
in
rain 24hr
in
rain mn
in
humidity
%
barometer
mb
20260506033401 34 154 1.0 5.0 0.00 0.00 0.00 68 1014.4
20260506032900 34 106 0.0 6.0 0.00 0.00 0.00 69 1014.4
20260506032358 34 188 2.0 6.0 0.00 0.00 0.00 67 1014.5
20260506031857 34 180 0.0 8.0 0.00 0.00 0.00 67 1014.4
20260506031358 34 122 2.0 8.0 0.00 0.00 0.00 66 1014.1
20260506030857 34 160 0.0 8.0 0.00 0.00 0.00 67 1014.2
20260506030357 34 131 1.0 8.0 0.00 0.00 0.00 66 1014.3
20260506025858 34 180 1.0 5.0 0.00 0.00 0.00 66 1014.1
20260506024358 34 157 1.0 6.0 0.00 0.00 0.00 66 1014.0
20260506023856 34 147 2.0 7.0 0.00 0.00 0.00 66 1014.1
20260506023354 34 120 0.0 7.0 0.00 0.00 0.00 66 1013.9
20260506022855 34 99 2.0 5.0 0.00 0.00 0.00 66 1013.9
20260506022354 34 126 1.0 4.0 0.00 0.00 0.00 66 1013.5
20260506021854 34 170 2.0 3.0 0.00 0.00 0.00 66 1013.7
20260506021357 34 180 2.0 4.0 0.00 0.00 0.00 66 1013.5
20260506020855 34 146 2.0 4.0 0.00 0.00 0.00 66 1013.5
20260506020356 34 113 0.0 5.0 0.00 0.00 0.00 65 1013.5
20260506015355 35 180 2.0 4.0 0.00 0.00 0.00 64 1013.7
20260506014358 35 80 2.0 6.0 0.00 0.00 0.00 65 1013.4
20260506013854 35 175 0.0 6.0 0.00 0.00 0.00 65 1013.4
20260506013355 35 177 0.0 6.0 0.00 0.00 0.00 65 1013.4
20260506012356 35 148 3.0 5.0 0.00 0.00 0.00 65 1013.3
20260506011856 35 90 1.0 5.0 0.00 0.00 0.00 66 1013.1
20260506011353 35 177 2.0 5.0 0.00 0.00 0.00 65 1013.3
20260506010854 35 148 1.0 4.0 0.00 0.00 0.00 65 1013.2
20260506005353 35 157 2.0 5.0 0.00 0.00 0.00 64 1012.8
20260506004854 35 161 4.0 8.0 0.00 0.00 0.00 64 1013.1
20260506004349 35 150 2.0 9.0 0.00 0.00 0.00 64 1012.9
20260506003849 35 171 3.0 9.0 0.00 0.00 0.00 63 1013.0
20260506003350 36 154 2.0 8.0 0.00 0.00 0.00 63 1012.8
20260506002851 35 167 2.0 8.0 0.00 0.00 0.00 63 1012.9
20260506002350 36 131 3.0 7.0 0.00 0.00 0.00 63 1012.9
20260506001838 36 160 3.0 7.0 0.00 0.00 0.00 63 1012.9
20260506001336 36 184 2.0 7.0 0.00 0.00 0.00 64 1012.9
20260506000834 36 180 3.0 7.0 0.00 0.00 0.00 62 1012.7
20260506000334 36 146 2.0 6.0 0.00 0.00 0.00 63 1012.6
20260505235834 36 126 3.0 10.0 0.00 0.00 0.00 62 1012.9
20260505235332 37 158 4.0 10.0 0.00 0.00 0.00 64 1012.4
20260505234833 37 137 4.0 6.0 0.00 0.00 0.00 63 1012.5
20260505234332 37 113 2.0 6.0 0.00 0.00 0.00 63 1012.8
20260505233831 37 155 2.0 6.0 0.00 0.00 0.00 63 1012.3
20260505233331 36 117 3.0 7.0 0.00 0.00 0.00 62 1012.6
20260505232331 37 148 1.0 8.0 0.00 0.00 0.00 63 1012.4
20260505231832 37 145 3.0 7.0 0.00 0.00 0.00 62 1012.6
20260505231328 37 164 1.0 8.0 0.00 0.00 0.00 62 1012.5
20260505230828 37 126 3.0 8.0 0.00 0.00 0.00 62 1012.2
20260505230326 37 33 2.0 7.0 0.00 0.00 0.00 61 1012.3
20260505225837 38 99 3.0 7.0 0.00 0.00 0.00 60 1012.3
20260505225327 38 149 2.0 6.0 0.00 0.00 0.00 60 1012.3
20260505224327 38 156 3.0 6.0 0.00 0.00 0.00 59 1012.3
20260505223822 38 94 2.0 8.0 0.00 0.00 0.00 59 1012.1
20260505223322 38 173 3.0 10.0 0.00 0.00 0.00 58 1012.2
20260505222832 38 143 2.0 10.0 0.00 0.00 0.00 58 1012.1
20260505222323 38 153 4.0 6.0 0.00 0.00 0.00 59 1012.1
20260505221322 38 45 2.0 10.0 0.00 0.00 0.00 59 1012.1
20260505220824 38 142 2.0 13.0 0.00 0.00 0.00 58 1012.1
20260505220322 38 147 3.0 13.0 0.00 0.00 0.00 58 1012.2
20260505215820 38 48 3.0 8.0 0.00 0.00 0.00 59 1012.1
20260505215320 38 167 5.0 7.0 0.00 0.00 0.00 60 1012.2
20260505214321 38 80 2.0 7.0 0.00 0.00 0.00 60 1012.4
20260505213819 38 125 6.0 7.0 0.00 0.00 0.00 61 1012.1
20260505213320 37 86 2.0 7.0 0.00 0.00 0.00 62 1012.5
20260505212819 38 107 4.0 6.0 0.00 0.00 0.00 60 1012.3
20260505211819 38 105 3.0 7.0 0.00 0.00 0.00 60 1012.4
20260505211317 38 144 3.0 6.0 0.00 0.00 0.00 59 1012.3
20260505210818 37 144 4.0 14.0 0.00 0.00 0.00 59 1012.5
20260505210319 37 114 1.0 14.0 0.00 0.00 0.00 61 1012.3
20260505205816 37 152 5.0 11.0 0.00 0.00 0.00 61 1012.5
20260505205318 36 105 7.0 11.0 0.00 0.00 0.00 61 1012.3
20260505204817 37 105 7.0 11.0 0.00 0.00 0.00 60 1012.4
20260505204317 37 94 5.0 6.0 0.00 0.00 0.00 58 1012.2
20260505203810 38 148 1.0 10.0 0.00 0.00 0.00 58 1012.5
20260505203310 38 191 4.0 10.0 0.00 0.00 0.00 59 1012.4
20260505202810 37 131 6.0 10.0 0.00 0.00 0.00 58 1012.5
20260505202312 36 179 4.0 9.0 0.00 0.00 0.00 61 1012.5
20260505201811 37 161 4.0 8.0 0.00 0.00 0.00 60 1012.5
20260505201311 37 151 0.0 8.0 0.00 0.00 0.00 62 1012.3
20260505200809 36 156 5.0 8.0 0.00 0.00 0.00 61 1012.4
20260505200309 37 60 4.0 5.0 0.00 0.00 0.00 61 1012.4
20260505195808 36 161 3.0 7.0 0.00 0.00 0.00 59 1012.2
20260505195309 37 158 5.0 9.0 0.00 0.00 0.00 58 1012.3
20260505194801 36 139 4.0 9.0 0.00 0.00 0.00 60 1012.4
20260505194302 36 108 2.0 9.0 0.00 0.00 0.00 60 1012.3
20260505193803 36 111 4.0 10.0 0.00 0.00 0.00 62 1012.3
20260505192800 36 159 4.0 10.0 0.00 0.00 0.00 62 1012.3
20260505192301 36 125 0.0 9.0 0.00 0.00 0.00 62 1012.1
20260505191801 36 157 4.0 9.0 0.00 0.00 0.00 62 1012.1
20260505191302 36 107 6.0 9.0 0.00 0.00 0.00 61 1012.0
20260505190801 36 114 1.0 9.0 0.00 0.00 0.00 62 1012.0
20260505190301 36 120 2.0 9.0 0.00 0.00 0.00 63 1012.1
20260505185801 36 129 7.0 14.0 0.00 0.00 0.00 63 1011.7
20260505185301 35 123 1.0 14.0 0.00 0.00 0.00 62 1012.1
20260505184801 35 106 3.0 11.0 0.00 0.00 0.00 65 1012.0
20260505184301 35 144 6.0 11.0 0.00 0.00 0.00 64 1012.2
20260505183301 34 168 2.0 12.0 0.00 0.00 0.00 65 1012.1
20260505182802 34 129 3.0 12.0 0.00 0.00 0.00 65 1012.0
20260505182305 35 142 2.0 9.0 0.00 0.00 0.00 64 1011.8
20260505181800 35 61 5.0 9.0 0.00 0.00 0.00 64 1011.6
20260505181301 35 124 3.0 8.0 0.00 0.00 0.00 65 1011.6
20260505180801 35 193 2.0 8.0 0.00 0.00 0.00 62 1011.6
20260505180303 35 118 3.0 8.0 0.00 0.00 0.00 61 1011.7
20260505175801 35 135 2.0 8.0 0.00 0.00 0.00 61 1011.7
20260505175301 36 117 3.0 8.0 0.00 0.00 0.00 62 1011.6
20260505174802 35 192 3.0 6.0 0.00 0.00 0.00 63 1011.7
20260505174303 34 186 3.0 7.0 0.00 0.00 0.00 64 1011.5
20260505173301 35 154 2.0 9.0 0.00 0.00 0.00 66 1011.5
20260505172802 34 174 3.0 9.0 0.00 0.00 0.00 64 1011.4
20260505171801 35 147 3.0 8.0 0.00 0.00 0.00 65 1011.3
20260505171259 34 135 3.0 8.0 0.00 0.00 0.00 65 1011.4
20260505170800 35 154 3.0 9.0 0.00 0.00 0.00 64 1011.2
20260505170258 34 94 2.0 9.0 0.00 0.00 0.00 66 1010.9
20260505165755 35 155 2.0 10.0 0.00 0.00 0.00 66 1010.8
20260505165254 34 110 3.0 10.0 0.00 0.00 0.00 66 1010.8
20260505164755 35 154 3.0 10.0 0.00 0.00 0.00 65 1010.9
20260505163751 33 150 3.0 7.0 0.00 0.00 0.00 72 1010.5
20260505162746 33 109 1.0 7.0 0.00 0.00 0.00 73 1010.6
20260505162246 33 156 2.0 8.0 0.00 0.00 0.00 74 1011.0
20260505161748 33 161 4.0 9.0 0.00 0.00 0.00 76 1010.7
20260505161248 31 148 3.0 9.0 0.00 0.00 0.00 77 1010.7
20260505160747 32 99 4.0 7.0 0.00 0.00 0.00 78 1010.9
20260505153230 32 133 3.0 8.0 0.00 0.00 0.00 71 1010.5
20260505152732 33 99 2.0 6.0 0.00 0.00 0.00 70 1010.3
20260505152229 33 90 2.0 7.0 0.00 0.00 0.00 70 1010.1
20260505151230 33 135 2.0 7.0 0.00 0.00 0.00 69 1010.0
20260505150731 33 197 2.0 7.0 0.00 0.00 0.00 69 1010.0
20260505140229 32 95 2.0 6.0 0.00 0.00 0.00 72 1009.7
20260505130214 30 221 0.0 10.0 0.00 0.00 0.00 78 1009.1
20260505124715 30 144 2.0 8.0 0.00 0.00 0.00 79 1008.6
20260505123714 30 68 3.0 8.0 0.00 0.00 0.00 80 1008.6
20260505123213 30 156 4.0 6.0 0.00 0.00 0.00 78 1008.5
20260505122714 30 86 2.0 6.0 0.00 0.00 0.00 78 1008.8
20260505122231 30 165 2.0 7.0 0.00 0.00 0.00 78 1008.5
20260505121715 30 130 3.0 7.0 0.00 0.00 0.00 78 1008.6
20260505121213 30 112 2.0 7.0 0.00 0.00 0.00 79 1008.3
20260505120714 30 109 3.0 7.0 0.00 0.00 0.00 77 1008.5
20260505120212 30 180 2.0 8.0 0.00 0.00 0.00 77 1008.3
20260505115715 30 175 1.0 8.0 0.00 0.00 0.00 77 1008.4
20260505115212 30 138 3.0 5.0 0.00 0.00 0.00 78 1008.3
20260505114714 30 131 3.0 6.0 0.00 0.00 0.00 78 1008.3
20260505113714 30 157 1.0 9.0 0.00 0.00 0.00 78 1008.5
20260505113213 30 135 2.0 9.0 0.00 0.00 0.00 78 1008.2
20260505112714 30 96 3.0 6.0 0.00 0.00 0.00 78 1008.2
20260505112214 30 145 1.0 6.0 0.00 0.00 0.00 78 1008.0
20260505111716 30 160 0.0 5.0 0.00 0.00 0.00 78 1008.1
20260505111212 30 166 1.0 5.0 0.00 0.00 0.00 78 1008.2
20260505110715 30 131 1.0 7.0 0.00 0.00 0.00 78 1008.3
20260505110212 30 63 1.0 7.0 0.00 0.00 0.00 79 1008.1
20260505102208 30 159 3.0 5.0 0.00 0.00 0.00 80 1007.8
20260505101711 29 121 2.0 5.0 0.00 0.00 0.00 80 1007.8
20260505101209 30 114 0.0 5.0 0.00 0.00 0.00 80 1007.9
20260505100704 29 119 4.0 4.0 0.00 0.00 0.00 81 1007.8
20260505100201 29 157 1.0 5.0 0.00 0.00 0.00 81 1008.1
20260505095704 29 75 0.0 8.0 0.00 0.00 0.00 81 1007.8
20260505095203 29 102 2.0 8.0 0.00 0.00 0.00 81 1007.8
20260505094703 29 108 4.0 5.0 0.00 0.00 0.00 81 1007.9
20260505093703 30 151 1.0 6.0 0.00 0.00 0.00 80 1007.7
20260505093203 29 70 3.0 5.0 0.00 0.00 0.00 81 1007.9
20260505092704 30 108 2.0 5.0 0.00 0.00 0.00 81 1007.6
20260505091703 29 99 2.0 5.0 0.00 0.00 0.00 81 1008.0
20260505091204 29 103 2.0 5.0 0.00 0.00 0.00 81 1007.8
20260505090705 29 151 2.0 4.0 0.00 0.00 0.00 81 1007.4
20260505090206 29 120 3.0 4.0 0.00 0.00 0.00 81 1007.7
20260505085705 30 117 2.0 4.0 0.00 0.00 0.00 81 1007.7
20260505085203 29 158 4.0 4.0 0.00 0.00 0.00 80 1007.5
20260505084204 29 105 2.0 4.0 0.00 0.00 0.00 81 1007.7
20260505083706 30 135 3.0 5.0 0.00 0.00 0.00 81 1007.4
20260505082706 30 112 0.0 8.0 0.00 0.00 0.00 81 1007.6
20260505082156 29 126 1.0 8.0 0.00 0.00 0.00 81 1007.4
20260505081653 29 161 3.0 5.0 0.00 0.00 0.00 81 1007.6
20260505081154 30 90 0.0 5.0 0.00 0.00 0.00 82 1007.5
20260505080145 30 103 1.0 5.0 0.00 0.00 0.00 81 1007.4
20260505075648 29 120 1.0 5.0 0.00 0.00 0.00 82 1007.2
20260505075140 29 96 1.0 7.0 0.00 0.00 0.00 82 1007.4
20260505074637 29 148 0.0 7.0 0.00 0.00 0.00 83 1007.3
20260505074136 29 180 3.0 6.0 0.00 0.00 0.00 82 1007.2
20260505073637 29 105 0.0 6.0 0.00 0.00 0.00 83 1007.2
20260505073136 29 90 3.0 4.0 0.00 0.00 0.00 84 1007.3
20260505072638 29 144 2.0 4.0 0.00 0.00 0.00 85 1007.2
20260505072135 28 98 0.0 4.0 0.00 0.00 0.00 86 1007.1
20260505071635 28 95 2.0 4.0 0.00 0.00 0.00 86 1007.2
20260505070635 28 90 2.0 3.0 0.00 0.00 0.00 85 1007.0
20260505070135 29 90 0.0 4.0 0.00 0.00 0.00 85 1007.2
20260505065137 29 96 4.0 4.0 0.00 0.00 0.00 85 1007.3
20260505064636 29 103 0.0 3.0 0.00 0.00 0.00 85 1007.2
20260505064135 29 114 1.0 3.0 0.00 0.00 0.00 84 1007.3
20260505063632 29 83 1.0 3.0 0.00 0.00 0.00 83 1007.3
20260505063130 29 105 0.0 4.0 0.00 0.00 0.00 82 1007.3
20260505062631 30 160 2.0 4.0 0.00 0.00 0.00 82 1007.4
20260505062129 30 100 2.0 3.0 0.00 0.00 0.00 82 1007.2
20260505061629 30 117 2.0 5.0 0.00 0.00 0.00 81 1007.1
20260505061129 30 90 1.0 7.0 0.00 0.00 0.00 81 1007.2
20260505060629 30 117 1.0 7.0 0.00 0.00 0.00 81 1007.2
20260505060129 31 104 4.0 5.0 0.00 0.00 0.00 80 1007.2
20260505055631 31 117 0.0 6.0 0.00 0.00 0.00 79 1007.2
20260505055131 31 146 2.0 6.0 0.00 0.00 0.00 80 1007.2
20260505054632 31 105 1.0 4.0 0.00 0.00 0.00 82 1007.4
20260505053130 30 117 1.0 5.0 0.00 0.00 0.00 83 1007.3
20260505052629 31 124 2.0 4.0 0.00 0.00 0.00 83 1007.4
20260505052129 30 95 2.0 3.0 0.00 0.00 0.00 83 1007.2
20260505051630 30 139 2.0 3.0 0.00 0.00 0.00 83 1007.1
20260505051129 31 96 1.0 6.0 0.00 0.00 0.00 82 1007.0
20260505050629 31 101 2.0 6.0 0.00 0.00 0.00 81 1006.9
20260505050128 31 90 2.0 4.0 0.00 0.00 0.00 81 1007.0
20260505041631 33 103 2.0 6.0 0.00 0.00 0.00 76 1006.9
20260505040629 33 121 3.0 6.0 0.00 0.00 0.00 76 1006.7
20260505040130 33 158 3.0 6.0 0.00 0.00 0.00 76 1006.6
20260505035633 33 176 2.0 5.0 0.00 0.00 0.00 76 1006.7
20260505035132 33 142 3.0 5.0 0.00 0.00 0.00 76 1006.8
20260505034632 33 180 2.0 3.0 0.00 0.00 0.00 76 1006.4